CST,Max TemperatureF,Mean TemperatureF,Min TemperatureF,Max Dew PointF,MeanDew PointF,Min DewpointF,Max Humidity, Mean Humidity, Min Humidity, Max Sea Level PressureIn, Mean Sea Level PressureIn, Min Sea Level PressureIn, Max VisibilityMiles, Mean VisibilityMiles, Min VisibilityMiles, Max Wind SpeedMPH, Mean Wind SpeedMPH, Max Gust SpeedMPH,PrecipitationIn, CloudCover, Events, WindDirDegrees
2013-2-1,8,0,-7,3,-8,-15,79,67,55,30.27,30.19,30.03,10,9,1,17,12,22,0.00,2,Snow,241
2013-2-2,14,11,8,10,5,1,92,74,57,30.07,30.02,29.95,10,9,2,12,5,,0.00,6,Snow,306
2013-2-3,19,16,12,16,10,7,93,76,58,30.00,29.95,29.89,10,7,0,17,6,23,0.01,7,Snow,259
2013-2-4,21,16,10,18,11,5,93,74,58,29.94,29.90,29.84,10,9,1,13,7,,0.02,5,Snow,52
2013-2-5,32,21,10,27,18,5,86,78,64,30.06,29.85,29.74,10,8,0,14,8,18,0.00,7,Snow,258
2013-2-6,35,24,12,32,21,9,93,82,64,30.14,30.07,29.98,10,9,2,18,5,23,0.00,4,Snow,140
2013-2-7,35,32,28,34,31,25,100,92,86,30.08,29.96,29.89,10,5,1,17,8,22,0.14,8,Rain-Snow,62
2013-2-8,28,22,14,23,18,12,93,76,64,30.32,30.26,30.08,10,10,10,16,9,21,0.00,3,Snow,16
2013-2-9,32,23,14,28,22,12,93,87,75,30.33,30.18,29.99,10,7,0,18,8,23,0.00,8,Fog,149
2013-2-10,42,35,28,41,33,27,100,92,81,29.99,29.59,29.35,10,4,0,23,13,33,0.13,7,Fog-Rain-Snow,145
2013-2-11,35,30,24,32,24,18,93,79,69,30.00,29.69,29.38,10,8,2,32,23,41,0.00,8,Snow,266
2013-2-12,32,28,23,23,20,14,86,75,64,30.06,29.97,29.82,10,10,5,20,12,25,0.00,5,Snow,244
2013-2-13,35,25,15,32,26,12,93,84,70,29.82,29.72,29.62,10,8,0,8,4,,0.00,4,Fog-Rain-Snow,216
2013-2-14,37,34,28,32,27,19,93,76,56,30.00,29.75,29.55,10,10,2,20,11,30,0.00,7,Rain-Snow,284
2013-2-15,28,20,12,18,8,3,69,59,43,30.19,30.14,30.01,10,10,10,21,9,28,0.00,2,,298
2013-2-16,21,14,8,3,2,0,79,62,46,30.18,30.13,30.10,10,10,10,10,4,,0.00,0,,307
2013-2-17,30,19,8,21,11,0,74,64,54,30.13,30.02,29.82,10,10,7,20,7,28,0.00,0,Snow,140
2013-2-18,44,32,17,32,26,12,100,76,61,29.81,29.58,29.48,10,9,2,24,15,34,0.00,4,Rain-Snow,208
2013-2-19,17,12,6,12,3,-4,86,68,57,30.20,29.89,29.62,10,8,1,26,20,34,0.00,5,Snow,286
2013-2-20,23,14,5,9,3,-4,68,62,50,30.34,30.29,30.21,10,10,10,14,8,17,0.00,0,,318
2013-2-21,28,20,12,25,14,7,93,78,63,30.35,30.21,29.90,10,8,0,22,10,29,0.00,4,Snow,64
2013-2-22,30,28,26,25,24,21,93,83,74,29.90,29.81,29.76,10,6,1,17,11,25,0.00,8,Snow,140
2013-2-23,30,26,19,21,18,14,86,76,64,29.94,29.86,29.83,10,10,7,14,10,16,0.00,6,Snow,248
2013-2-24,33,24,14,19,16,10,86,71,52,30.09,30.04,29.94,10,10,10,8,4,,0.00,0,Snow,178
2013-2-25,37,29,21,28,24,16,86,74,65,30.12,30.06,29.96,10,10,7,9,4,,0.00,2,Snow,119
2013-2-26,33,32,30,30,26,23,93,78,65,29.95,29.74,29.64,10,8,2,26,15,34,0.00,6,Snow,36
2013-2-27,33,32,30,32,29,27,100,90,80,29.80,29.69,29.63,10,4,2,15,13,21,0.00,8,Snow,346
2013-2-28,33,32,28,30,26,23,93,79,69,30.09,29.96,29.81,10,10,10,15,12,22,0.00,8,Snow,352